Home   Weather   St. Albert   Past weeks

Flag for Canada Past Weather in St. Albert, Alberta, Canada — Yesterday and Last 2 Weeks

Now
30 °F

Chilly.


Feels Like: 21 °F
Forecast: 28 / 35 °F
Wind: 10 mph from East

Location: Edmonton Municipal

Current Time: Apr 23, 2017 at 2:15:55 am

Latest Report: Apr 23, 2017 at 1:00 am


Visibility: N/A

Pressure: 30.19 "Hg (27.81 "Hg at 653m altitude)

Humidity: 94%

Dew Point: 28 °F

Location of St. AlbertLocation

Past Weather in St. Albert — Graph

°F

St. Albert Temperature Yesterday

Maximum temperature yesterday: 39 °F (at 12:00 am)
Minimum temperature yesterday: 33 °F (at 7:00 am)
Average temperature yesterday: 35 °F

High & Low Weather Summary for the Past Weeks

 TemperatureHumidityPressure
High59 °F (Apr 20, 5:00 pm)100% (Apr 11, 5:00 am)30.44 "Hg (Apr 11, 5:00 am)
Low22 °F (Apr 16, 7:00 am)33% (Apr 20, 6:00 pm)29.41 "Hg (Apr 8, 1:00 am)
Average36 °F80%30.05 "Hg
* Reported Apr 8 1:00 am — Apr 23 1:00 am, St. Albert, Weather by CustomWeather, © 2017

Note: Actual official high and low records may vary slightly from our data, if they occured in-between our weather recording intervals... More about our weather records

Advertising

St. Albert Weather History for the Previous 24 Hours

Scroll right to see more
 ConditionsComfort  
Time TempWeatherWind HumidityBarometerVisibility
1:00 am
Sun, Apr 23
30 °FChilly.10 mph94%30.19 "HgN/A
12:00 am32 °FChilly.13 mph79%30.20 "HgN/A
11:00 pm
Sat, Apr 22
34 °FChilly.13 mph64%30.21 "HgN/A
10:00 pm35 °FChilly.12 mph63%30.22 "HgN/A
9:00 pm35 °FChilly.13 mph63%30.24 "HgN/A
8:00 pm35 °FChilly.13 mph65%30.24 "HgN/A
7:00 pm36 °FChilly.15 mph63%30.26 "HgN/A
6:00 pm37 °FChilly.12 mph67%30.27 "HgN/A
5:00 pm36 °FChilly.12 mph70%30.29 "HgN/A
4:00 pm36 °FChilly.14 mph71%30.31 "HgN/A
3:00 pm36 °FChilly.13 mph75%30.33 "HgN/A
2:00 pm35 °FChilly.15 mph84%30.34 "HgN/A
1:00 pm34 °FChilly.13 mph88%30.35 "HgN/A
12:00 pm34 °FChilly.13 mph92%30.34 "HgN/A
11:00 am34 °FChilly.10 mph97%30.34 "HgN/A
10:00 am34 °FChilly.7 mph90%30.34 "HgN/A
9:00 am34 °FChilly.6 mph96%30.33 "HgN/A
8:00 am34 °FChilly.10 mph97%30.32 "HgN/A
7:00 am33 °FChilly.8 mph98%30.33 "HgN/A
6:00 am34 °FChilly.10 mph98%30.32 "HgN/A
5:00 am34 °FChilly.8 mph97%30.33 "HgN/A
4:00 am35 °FChilly.5 mph97%30.32 "HgN/A
3:00 am36 °FChilly.6 mph97%30.34 "HgN/A
2:00 am36 °FChilly.6 mph95%30.37 "HgN/A
Weather by CustomWeather, © 2017

See weather overviewHow to use our weather pages